This is the latest recevied weather packets stored in our database for station/object BARLOW-WX. If no packets are shown the sender has not sent any weather packets the latest 10 day(s).
| Time | Temp. | Humidity | Pressure | Rain* | Wind** | Luminosity | Snow |
|---|---|---|---|---|---|---|---|
| 1776936692 | 10.56° C | 91% | 986.4 hPa | 0 mm | - | - | - |
| 1776935779 | 10.56° C | 91% | 986.4 hPa | 0 mm | - | - | - |
| 1776934903 | 10.56° C | 91% | 986.4 hPa | 0 mm | - | - | - |
| 1776933977 | 10.56° C | 89% | 986.3 hPa | 0 mm | - | - | - |
| 1776933091 | 10.56° C | 85% | 985.9 hPa | 0 mm | - | - | - |
| 1776932186 | 11.11° C | 85% | 985.9 hPa | 0 mm | - | - | - |
| 1776931303 | 11.11° C | 85% | 985.9 hPa | 0 mm | - | - | - |
| 1776930380 | 11.11° C | 83% | 985.5 hPa | 0 mm | - | - | - |
| 1776929493 | 11.67° C | 83% | 985.5 hPa | 0 mm | - | - | - |
| 1776928586 | 11.67° C | 83% | 985.5 hPa | 0 mm | - | - | - |
| 1776927703 | 11.67° C | 83% | 985.5 hPa | 0 mm | - | - | - |
| 1776926786 | 11.67° C | 82% | 986.1 hPa | 0 mm | - | - | - |
| 1776925895 | 12.22° C | 82% | 986.1 hPa | 0 mm | - | - | - |
| 1776924982 | 12.78° C | 82% | 986.2 hPa | 0 mm | - | - | - |
| 1776924110 | 12.78° C | 82% | 986.2 hPa | 0 mm | - | - | - |
| 1776923184 | 12.78° C | 82% | 986.7 hPa | 0 mm | - | - | - |
| 1776922294 | 13.33° C | 84% | 986.3 hPa | 0 mm | - | - | - |
| 1776921385 | 13.33° C | 84% | 986.3 hPa | 0 mm | - | - | - |
| 1776920503 | 13.33° C | 84% | 986.3 hPa | 0 mm | - | - | - |
| 1776919585 | 13.33° C | 85% | 986.8 hPa | 0 mm | - | - | - |
| 1776918693 | 13.89° C | 86% | 986.2 hPa | 0 mm | - | - | - |
| 1776917785 | 14.44° C | 86% | 986.2 hPa | 0 mm | - | - | - |
| 1776916906 | 15° C | 86% | 986.2 hPa | 0 mm | - | - | - |
| 1776915977 | 15° C | 80% | 986.3 hPa | 0 mm | - | - | - |
| 1776915090 | 15° C | 86% | 986.8 hPa | 0 mm | - | - | - |
* Rain latest hour (hover to see other rain measurements)
** Current wind speed in m/s (hover to see current wind gust speed)